| time (UTC) | temp C | wind direction | speed KPH | gust KPH | rain 1hr cm | rain 24hr cm | rain mn cm | humidity % | barometer mb |
| 20260509211557 | 11 | 171 | 4.8 | 12.9 | 0.00 | 1.37 | 1.37 | 93 | 1010.2 |
| 20260509210059 | 11 | 161 | 4.8 | 11.3 | 0.00 | 1.37 | 1.37 | 94 | 1010.3 |
| 20260509204559 | 10 | 201 | 6.4 | 16.1 | 0.00 | 1.37 | 1.37 | 95 | 1010.4 |
| 20260509203050 | 10 | 135 | 3.2 | 9.7 | 0.00 | 1.37 | 1.37 | 95 | 1010.5 |
| 20260509201549 | 10 | 169 | 4.8 | 11.3 | 0.03 | 1.37 | 1.37 | 95 | 1010.5 |
| 20260509200046 | 10 | 157 | 4.8 | 14.5 | 0.05 | 1.37 | 1.37 | 95 | 1010.5 |
| 20260509194545 | 10 | 169 | 6.4 | 14.5 | 0.05 | 1.37 | 1.37 | 95 | 1010.8 |
| 20260509193044 | 10 | 165 | 4.8 | 9.7 | 0.13 | 1.37 | 1.37 | 95 | 1011.0 |
| 20260509191544 | 10 | 159 | 3.2 | 8.0 | 0.15 | 1.35 | 1.35 | 95 | 1011.1 |
| 20260509190041 | 10 | 140 | 1.6 | 11.3 | 0.13 | 1.32 | 1.32 | 95 | 1011.1 |
| 20260509184540 | 9 | 159 | 6.4 | 11.3 | 0.15 | 1.32 | 1.32 | 95 | 1011.2 |
| 20260509183038 | 9 | 141 | 4.8 | 12.9 | 0.08 | 1.24 | 1.24 | 94 | 1011.2 |
| 20260509181538 | 9 | 167 | 4.8 | 11.3 | 0.03 | 1.19 | 1.19 | 94 | 1011.2 |
| 20260509180037 | 10 | 146 | 4.8 | 14.5 | 0.03 | 1.19 | 1.19 | 94 | 1011.1 |
| 20260509174546 | 10 | 157 | 4.8 | 11.3 | 0.00 | 1.17 | 1.17 | 94 | 1011.1 |
| 20260509173041 | 10 | 136 | 6.4 | 12.9 | 0.00 | 1.17 | 1.17 | 94 | 1011.1 |
| 20260509171537 | 9 | 126 | 3.2 | 11.3 | 0.03 | 1.17 | 1.17 | 95 | 1011.0 |
| 20260509170033 | 9 | 123 | 6.4 | 11.3 | 0.03 | 1.17 | 1.17 | 95 | 1011.2 |
| 20260509164534 | 9 | 155 | 3.2 | 8.0 | 0.03 | 1.17 | 1.17 | 95 | 1011.3 |
| 20260509163031 | 9 | 119 | 3.2 | 14.5 | 0.03 | 1.17 | 1.17 | 95 | 1011.2 |
| 20260509161532 | 9 | 126 | 4.8 | 14.5 | 0.00 | 1.14 | 1.14 | 95 | 1011.4 |
| 20260509160028 | 9 | 103 | 4.8 | 8.0 | 0.00 | 1.14 | 1.14 | 94 | 1011.5 |
| 20260509154532 | 9 | 145 | 4.8 | 11.3 | 0.03 | 1.14 | 1.14 | 95 | 1011.7 |
| 20260509153032 | 8 | 117 | 4.8 | 16.1 | 0.05 | 1.14 | 1.14 | 95 | 1011.8 |
| 20260509151524 | 8 | 101 | 6.4 | 17.7 | 0.08 | 1.14 | 1.14 | 95 | 1011.9 |
| 20260509150022 | 8 | 107 | 8.0 | 14.5 | 0.13 | 1.14 | 1.14 | 95 | 1012.0 |
| 20260509144520 | 8 | 186 | 3.2 | 9.7 | 0.13 | 1.12 | 1.12 | 95 | 1012.3 |
| 20260509143020 | 8 | 104 | 3.2 | 9.7 | 0.13 | 1.09 | 1.09 | 96 | 1012.5 |
| 20260509141516 | 8 | 102 | 0.0 | 6.4 | 0.13 | 1.07 | 1.07 | 95 | 1012.6 |
| 20260509140015 | 8 | 80 | 1.6 | 4.8 | 0.10 | 1.02 | 1.02 | 95 | 1012.6 |
| 20260509134514 | 8 | 69 | 1.6 | 4.8 | 0.13 | 0.99 | 0.99 | 96 | 1012.5 |
| 20260509133010 | 8 | 94 | 0.0 | 4.8 | 0.15 | 0.97 | 0.97 | 96 | 1012.5 |
| 20260509131515 | 8 | 102 | 1.6 | 4.8 | 0.18 | 0.94 | 0.94 | 96 | 1012.6 |
| 20260509130011 | 8 | 105 | 3.2 | 6.4 | 0.25 | 0.91 | 0.91 | 96 | 1012.7 |
| 20260509124505 | 7 | 96 | 1.6 | 4.8 | 0.25 | 0.86 | 0.86 | 96 | 1012.8 |
| 20260509123006 | 7 | 126 | 1.6 | 6.4 | 0.28 | 0.81 | 0.81 | 96 | 1012.8 |
| 20260509121508 | 7 | 138 | 4.8 | 12.9 | 0.25 | 0.76 | 0.76 | 95 | 1012.7 |
| 20260509120002 | 7 | 159 | 4.8 | 12.9 | 0.20 | 0.66 | 0.66 | 95 | 1012.9 |
| 20260509114503 | 7 | 123 | 3.2 | 6.4 | 0.18 | 0.61 | 0.61 | 95 | 1013.1 |
| 20260509113103 | 7 | 177 | 3.2 | 9.7 | 0.23 | 0.56 | 0.56 | 95 | 1013.0 |
| 20260509111607 | 7 | 115 | 4.8 | 11.3 | 0.28 | 0.51 | 0.51 | 95 | 1013.1 |
| 20260509110059 | 7 | 109 | 3.2 | 6.4 | 0.28 | 0.46 | 0.46 | 95 | 1013.0 |
| 20260509104556 | 7 | 162 | 3.2 | 8.0 | 0.28 | 0.43 | 0.43 | 95 | 1012.9 |
| 20260509103100 | 7 | 174 | 4.8 | 9.7 | 0.18 | 0.33 | 0.33 | 95 | 1013.0 |
| 20260509101555 | 7 | 128 | 3.2 | 9.7 | 0.08 | 0.23 | 0.23 | 95 | 1012.9 |
| 20260509100053 | 7 | 117 | 3.2 | 11.3 | 0.03 | 0.18 | 0.18 | 94 | 1012.8 |
| 20260509094555 | 7 | 128 | 3.2 | 11.3 | 0.00 | 0.15 | 0.15 | 94 | 1012.8 |
| 20260509093051 | 7 | 128 | 3.2 | 9.7 | 0.03 | 0.15 | 0.15 | 94 | 1012.8 |
| 20260509091550 | 7 | 125 | 3.2 | 9.7 | 0.03 | 0.15 | 0.15 | 94 | 1012.8 |
| 20260509084547 | 7 | 114 | 3.2 | 9.7 | 0.05 | 0.15 | 0.15 | 94 | 1012.9 |
| 20260509083051 | 7 | 119 | 4.8 | 9.7 | 0.03 | 0.13 | 0.13 | 94 | 1013.1 |
| 20260509081545 | 7 | 72 | 0.0 | 4.8 | 0.03 | 0.13 | 0.13 | 93 | 1013.2 |
| 20260509080046 | 7 | 153 | 3.2 | 9.7 | 0.03 | 0.13 | 0.13 | 93 | 1013.6 |
| 20260509074542 | 7 | 146 | 3.2 | 6.4 | 0.00 | 0.10 | 0.10 | 93 | 1013.7 |
| 20260509073045 | 7 | 134 | 3.2 | 6.4 | 0.03 | 0.10 | 0.10 | 93 | 1013.6 |
| 20260509071540 | 7 | 123 | 3.2 | 8.0 | 0.05 | 0.10 | 0.10 | 92 | 1013.4 |
| 20260509070038 | 7 | 155 | 3.2 | 4.8 | 0.10 | 0.10 | 0.10 | 92 | 1013.4 |
| 20260509064541 | 7 | 151 | 1.6 | 4.8 | 0.10 | 0.10 | 0.10 | 92 | 1013.4 |
| 20260509063036 | 7 | 153 | 1.6 | 8.0 | 0.08 | 0.08 | 0.08 | 91 | 1013.6 |
| 20260509061540 | 7 | 142 | 3.2 | 6.4 | 0.05 | 0.05 | 0.05 | 90 | 1013.9 |
| 20260509060032 | 7 | 134 | 1.6 | 4.8 | 0.00 | 0.00 | 0.00 | 88 | 1014.4 |
| 20260509054529 | 7 | 134 | 1.6 | 4.8 | 0.00 | 0.00 | 0.00 | 85 | 1014.5 |
| 20260509053032 | 8 | 131 | 3.2 | 6.4 | 0.00 | 0.00 | 0.00 | 84 | 1014.4 |
| 20260509051527 | 8 | 138 | 3.2 | 6.4 | 0.00 | 0.00 | 0.00 | 83 | 1014.4 |
| 20260509050028 | 8 | 146 | 3.2 | 6.4 | 0.00 | 0.00 | 0.00 | 83 | 1014.2 |
| 20260509044527 | 8 | 111 | 1.6 | 4.8 | 0.00 | 0.00 | 0.00 | 83 | 1014.2 |
| 20260509043024 | 8 | 125 | 1.6 | 4.8 | 0.00 | 0.00 | 0.00 | 82 | 1014.4 |
| 20260509041534 | 8 | 113 | 3.2 | 11.3 | 0.00 | 0.00 | 0.00 | 81 | 1014.5 |
| 20260509040018 | 8 | 80 | 1.6 | 3.2 | 0.00 | 0.00 | 0.00 | 80 | 1014.7 |
| 20260509034518 | 8 | 72 | 1.6 | 3.2 | 0.00 | 0.00 | 0.00 | 80 | 1014.7 |
| 20260509033017 | 7 | 72 | 0.0 | 1.6 | 0.00 | 0.00 | 0.00 | 78 | 1014.7 |
| 20260509031517 | 7 | 72 | 0.0 | 3.2 | 0.00 | 0.00 | 0.00 | 75 | 1014.5 |
| 20260509030017 | 7 | 72 | 0.0 | 3.2 | 0.00 | 0.00 | 0.00 | 77 | 1014.6 |
| 20260509024516 | 7 | 78 | 0.0 | 3.2 | 0.00 | 0.00 | 0.00 | 77 | 1014.7 |
| 20260509023017 | 8 | 78 | 0.0 | 1.6 | 0.00 | 0.00 | 0.00 | 75 | 1014.6 |
| 20260509021515 | 8 | 78 | 0.0 | 3.2 | 0.00 | 0.00 | 0.00 | 72 | 1014.6 |
| 20260509020014 | 8 | 78 | 1.6 | 4.8 | 0.00 | 0.00 | 0.00 | 71 | 1014.9 |
| 20260509014514 | 8 | 78 | 1.6 | 4.8 | 0.00 | 0.00 | 0.00 | 69 | 1014.7 |
| 20260509013013 | 8 | 78 | 1.6 | 4.8 | 0.00 | 0.00 | 0.00 | 67 | 1014.6 |
| 20260509011514 | 8 | 78 | 1.6 | 4.8 | 0.00 | 0.00 | 0.00 | 64 | 1014.4 |
| 20260509010033 | 9 | 77 | 3.2 | 6.4 | 0.00 | 0.00 | 0.00 | 61 | 1014.2 |
| 20260509004523 | 9 | 42 | 1.6 | 4.8 | 0.00 | 0.00 | 0.00 | 56 | 1014.0 |
| 20260509003011 | 9 | 42 | 0.0 | 4.8 | 0.00 | 0.00 | 0.00 | 56 | 1014.0 |
| 20260509001511 | 9 | 42 | 0.0 | 3.2 | 0.00 | 0.00 | 0.00 | 56 | 1014.0 |
| 20260509000010 | 10 | 42 | 1.6 | 3.2 | 0.00 | 0.00 | 0.00 | 55 | 1013.7 |
| 20260508234520 | 10 | 42 | 0.0 | 1.6 | 0.00 | 0.00 | 0.00 | 55 | 1013.6 |
| 20260508233014 | 10 | 42 | 0.0 | 1.6 | 0.00 | 0.00 | 0.00 | 55 | 1013.4 |
| 20260508231509 | 11 | 42 | 0.0 | 1.6 | 0.00 | 0.00 | 0.00 | 54 | 1013.2 |
| 20260508230006 | 11 | 42 | 0.0 | 1.6 | 0.00 | 0.00 | 0.00 | 52 | 1013.3 |
| 20260508224504 | 11 | 42 | 0.0 | 4.8 | 0.00 | 0.00 | 0.00 | 52 | 1013.3 |
| 20260508223004 | 11 | 29 | 0.0 | 4.8 | 0.00 | 0.00 | 0.00 | 51 | 1013.4 |
| 20260508221502 | 12 | 355 | 1.6 | 6.4 | 0.00 | 0.00 | 0.00 | 48 | 1013.3 |
| 20260508220000 | 11 | 205 | 3.2 | 6.4 | 0.00 | 0.00 | 0.00 | 49 | 1013.2 |
| 20260508214607 | 11 | 247 | 1.6 | 6.4 | 0.00 | 0.00 | 0.00 | 51 | 1013.4 |
| 20260508213100 | 11 | 225 | 1.6 | 6.4 | 0.00 | 0.00 | 0.00 | 49 | 1013.4 |